IRIDIUM 33 DEB, 35618

Orbit data source: Space-Track

IRIDIUM 33 DEB, 35618 is space debris in LEO originally from a launch on Sun, 14 Sep 1997 UTC launched from the Tyuratam Missile And Space Complex (TTMTR). The debris from Iridium 33, an American commercial communications satellite, has been tracked extensively since its accidental collision with the defunct Russian satellite Cosmos 2251 in 2009. This event, occurring at high speed in low Earth orbit (LEO), generated thousands of pieces of space debris, significantly increasing the risk of further collisions. The Iridium 33 debris cloud has impacted space traffic management and orbital debris mitigation strategies, making it a subject of ongoing study in space situational awareness.

Loading next visibility...
Identifier
35618, 1997-051QQ
Orbit
LEO
Country
Flag of USUS
Related business
Manufacturer
Unknown
Mission
Spacecraft
Bus & Motor
Unknown
Mass
Unknown
Launch date (UTC)
1997-09-14 (28 years ago)
Launch vehicle
Unknown
Launch site
Tyuratam Missile And Space Complex (TTMTR)
Object type
Payload
Rocket body
Debris
Shape & HBR
Unknown shape, 0.1 m
Radar Cross Section
Small (<0.1 m²)

Expand to show TLE details & history
Last TLE update: 1 week ago

TLE from 1 week ago
0 IRIDIUM 33 DEB
1 35618U 97051QQ  25298.94149942  .00002748  00000-0  67121-3 0  9994
2 35618  86.3442  14.3862 0029251 174.2760 185.8786 14.52038359647002
Epoch: 2025-10-25T22:35Z
TLE epoch observation values (Epoch: 2025-10-25T22:35:45.549Z)
Latitude
-0.00005°
Longitude
0.88159°
Altitude
742.73 km
Speed
7.472 km/s
True Right ascension
00h 57m 32s
True Declination
0° 00' 00"
Sunlit
Object was in full shadow at epoch
Visualization orbit readout
Latitude
Unknown
Longitude
Unknown
Altitude
Unknown
Speed
Unknown
Apparent Right ascension
Unknown
Apparent Declination
Unknown
Sunlit
N/A
Visualization observer readout
Local Sidereal Time
04:22:41
Azimuth
Unknown
Elevation
Unknown
Doppler factor
Unknown
Orbital elements
Apogee altitude
736.69 km
Perigee altitude
695.188 km
Semi-major axis
7,094.076 km
Eccentricity
0.00293
Inclination
86.3442°
RAAN
14.3862°
Arg. of periapsis
174.276°
True anomaly
185.84439°
Mean anomaly
185.8786°
Eccentric anomaly
185.86148°
Mean motion
3.63245 °/min
Orbital period
99.11 mins
BSTAR
0.00067121
Loading maneuver chart data...
Computing Atmospheric mass density...

Documentation

Showing up to 5 results
|